Weather in Yel'niki

Russia / Krasnoyarsk Krai     55°44′31″N   96°25′03″E
temp.,
°C
wind,
m/s
gust,
m/s
humid.,
%
clouds,
%
prec.,
mm/h
press.,
hPa
HPBL,
m
26 february, fri
fri2601:00−17wnw31290100 0.4 1023529
04:00−20wsw259498 0.0 1025110
07:00−19sw3118899 0.0 1028392
10:00−16wnw61169100 0.0 10271277
13:00−17w4682100 0.0 10261202
16:00−18w3590100 0.2 1027865
19:00−19w4996100 1.2 10311234
22:00−22w41183100 0.4 10341271
27 february, sat
sat2701:00−23wsw41189100 0.4 1035919
04:00−23wsw41293100 0.1 10351204
07:00−23wsw31195100 0.1 10361042
10:00−21w61191100 0.1 10361325
13:00−19w51088100 0.3 10351525
16:00−18w51089100 0.3 10341626
19:00−20w2998100 0.4 1035670
22:00−22wsw21097100 0.1 1036547
28 february, sun
sun2801:00−22sw2699100 0.4 1037228
04:00−23wsw2998100 0.2 1038551
07:00−24wsw2798100 0.3 1039309
10:00−21wsw4992100 0.1 1039876
13:00−18w4887100 0.3 10381171
16:00−17w3589100 0.1 1036935
19:00−19wsw1199100 0.4 103620
22:00−20ssw2299100 0.3 103654
1 march, mon
mon101:00−20sw1299100 0.6 103534
04:00−24s1110070 0.0 103420
07:00−25se129877 0.0 103220
10:00−18se139074 0.0 1029207
13:00−13ese238578 0.0 1025515
16:00−12ene3493100 0.1 1022415
19:00−14ene3896100 0.4 1020309
22:00−16ne3796100 0.3 1020251
2 march, tue
tue201:00−17ne3697100 0.8 1019225
04:00−19ene3698100 0.3 1018221
07:00−19ene3898100 0.7 1018241
10:00−18ene3797100 0.6 1017264
13:00−15ene4795100 1.4 1015315
16:00−14ene4795100 0.7 1014375
19:00−16ene4996100 1.4 1015375
22:00−16ene4896100 0.9 1015355